Вернуться в каталог

COSMOS 2491 DEB

LostPO
NORAD 45032·DEBRIS·🇷🇺 Russia

Запущен Dec 25, 2013 с Plesetsk Cosmodrome

Loading…

Ближайшие Пролёты (ближайшие 24 часа)

TLE

УстаревшееSource: Space-Track

Эпоха: Jan 27, 2020, 17:20 UTC

1 45032U 13076V   20027.72226159 -.00000632  00000-0 -37238-2 0  9994
2 45032  82.4888 182.5390 0097326  38.3639 322.4319 12.58302260  2499

Отслеживайте COSMOS 2491 DEB в реальном времени с AllMySat

Download on the App Store